Location: Asheville, NC
(35.6000°N, 82.5500°W)
Time: 04:52:34
(UTC-04:00)

XW-2B - Pass Details

Date: 15 February 2018
Orbit: 509 x 531 km, 97.5° (Epoch: 24 May)

Event Time Altitude Azimuth Distance (km) Brightness Sun altitude
Rises 06:14:12 0° 18° (NNE) 2,624 ? -13.4°
Reaches altitude 10° 06:16:21 10° 25° (NNE) 1,736 ? -12.9°
Maximum altitude 06:19:58 46° 99° (E) 693 ? -12.2°
Drops below altitude 10° 06:23:34 10° 174° (S) 1,734 ? -11.5°
Sets 06:25:43 0° 180° (S) 2,620 ? -11.0°
